« Back
NWS Peachtree City, Ga » Text Product » GA Regional Weather Roundup


Printer-friendly Version
Current Version              Previous Versions:   1  2  3  4  5  6  7  8  9  

Regional Weather Roundup

695
ASUS42 KFFC 281803
RWRGA
WEATHER ROUNDUP FOR GEORGIA
NATIONAL WEATHER SERVICE PEACHTREE CITY GA
100 PM EST SAT FEB 28 2015

NOTE: "FAIR" INDICATES FEW OR NO CLOUDS BELOW 12,000 FEET WITH NO
SIGNIFICANT WEATHER AND/OR OBSTRUCTIONS TO VISIBILITY.

* = USE WITH CAUTION. THE STATIONS MARKED WITH AN ASTERISK MAY NOT
REPORT WEATHER SUCH AS PRECIPITATION, FOG, OR THUNDER AND ARE NOT
QUALITY CONTROLLED BY NWS.

THE REMARK "TC" DENOTES TEMPERATURE READING IN DEGREES CELSIUS.

GAZ001>058-281900-
NORTH GEORGIA

CITY           SKY/WX    TMP DP  RH WIND       PRES   REMARKS
ATLANTA        PTSUNNY   51  29  42 E9G18     30.54F
6HR MIN TEMP:  36; 6HR MAX TEMP:  52;

ATHENS         MOSUNNY   48  25  40 NE12      30.59F
6HR MIN TEMP:  35; 6HR MAX TEMP:  48;

CHAMBLEE       MOSUNNY   48  26  42 VRB7      30.55F
6HR MIN TEMP:  35; 6HR MAX TEMP:  48;

PEACHTREE CITY SUNNY     53  31  42 E12G17    30.53F
6HR MIN TEMP:  35; 6HR MAX TEMP:  53;

ROME           PTSUNNY   48  31  51 E8        30.55F
6HR MIN TEMP:  31; 6HR MAX TEMP:  48;

WEST ATLANTA   MOSUNNY   51  28  41 E9G18     30.55F
6HR MIN TEMP:  35; 6HR MAX TEMP:  51;

GAINESVILLE    PTSUNNY   43  23  45 E10       30.59F
6HR MIN TEMP:  34; 6HR MAX TEMP:  43;

CARTERSVILLE   MOSUNNY   48  28  46 E12G20    30.55F
6HR MIN TEMP:  30; 6HR MAX TEMP:  48;



CITY           SKY/WX    TMP DP  RH WIND       PRES   REMARKS
DALTON*        MOSUNNY   45  30  57 CALM      30.56F
LAWRENCEVILLE* SUNNY     46  23  39 NE12      30.56F
KENNESAW*      MOSUNNY   46  28  49 SE9G17    30.57F
$$

GAZ059>098-102>109-281900-
CENTRAL GEORGIA

CITY           SKY/WX    TMP DP  RH WIND       PRES   REMARKS
AUGUSTA-BUSH   MOSUNNY   53  29  39 NE13      30.60F
6HR MIN TEMP:  36; 6HR MAX TEMP:  54;

AUGUSTA-DANIEL MOSUNNY   52  28  39 N13       30.60F
6HR MIN TEMP:  38; 6HR MAX TEMP:  52;

COLUMBUS       MOSUNNY   55  36  48 E15G22    30.50F
6HR MIN TEMP:  37; 6HR MAX TEMP:  55;

MACON          CLOUDY    51  35  54 E13       30.54F
6HR MIN TEMP:  37; 6HR MAX TEMP:  52;



CITY           SKY/WX    TMP DP  RH WIND       PRES   REMARKS
LAGRANGE*      MOSUNNY   59  37  43 E9        30.51F
SYLVANIA*      CLOUDY    51  34  52 E10G18    30.57F
MILLEDGEVILLE* MOSUNNY   54  36  50 E8        30.56F
$$

GAZ099>101-110>166-281900-
SOUTH GEORGIA

CITY           SKY/WX    TMP DP  RH WIND       PRES   REMARKS
SAVANNAH       LGT RAIN  48  35  60 NE8G16    30.55F
6HR MIN TEMP:  44; 6HR MAX TEMP:  50; 6HR PCP: TRACE;

VALDOSTA       LGT RAIN  48  46  93 NE12      30.46F FOG
6HR MIN TEMP:  45; 6HR MAX TEMP:  48; 6HR PCP:  0.12;

ALMA           LGT RAIN  45  42  89 VRB5      30.51S FOG
6HR MIN TEMP:  45; 6HR MAX TEMP:  47; 6HR PCP:  0.06;

ST SIMONS      CLOUDY    47  45  93 NE21G28   30.49F FOG
6HR MIN TEMP:  46; 6HR MAX TEMP:  50; 6HR PCP:  0.01;

FT STEWART     LGT RAIN  46  37  71 NE8       30.51F
ALBANY         LGT RAIN  49  42  77 NE12      30.51F
HUNTER AFB     MOSUNNY   45  38  74 E8        30.52F
MOODY AFB      LGT RAIN  47  45  93 NE9       30.46F FOG
BRUNSWICK      CLOUDY    46  43  87 NE17G29   30.51F


CITY           SKY/WX    TMP DP  RH WIND       PRES   REMARKS
BAINBRIDGE*    CLOUDY    52  48  87 NE14G21   30.46F
MOULTRIE*      DRIZZLE   46  46 100 NE8       30.47F
VIDALIA*       CLOUDY    50  34  53 NE15      30.54F
WAYCROSS*      LGT RAIN  48  47  96 E9        30.50S
DOUGLAS*       LGT RAIN  46  45  93 NE15      30.51F
$$



USA.gov is the U.S. government's official web portal to all federal, state and local government web resources and services.